Flag for Brazil Weather past 2 weeks in Porto Velho, Rondônia, Brazil

90 °F

Scattered showers. Scattered clouds.

Feels Like: 96 °F
Forecast: 75 / 90 °F
Wind: 12 mph from Southeast

Location: Porto Velho Aeroporto

Current Time: Nov 30, 2015 at 3:18:27 PM

Latest Report: Nov 30, 2015 at 3:00 PM

Visibility: N/A

Pressure: N/A

Humidity: 55%

Dew point: 72 °F

Location of Porto VelhoLocation

Historic Weather in Porto Velho — Graph


Porto Velho temperature yesterday

Maximum temperature yesterday: 91 °F (at 12:00 PM)
Minimum temperature yesterday: 75 °F (at 12:00 AM)
Average temperature yesterday: 83 °F

Past Weeks' High & Low Weather Summary

High95 °F (Nov 15, 2:00 PM)100% (Nov 22, 9:00 PM)29.86 "Hg (Nov 22, 9:00 PM)
Low39 °F (Nov 22, 9:00 PM)24% (Nov 22, 11:00 PM)29.62 "Hg (Nov 19, 4:00 PM)
Average82 °F74%29.75 "Hg
* Reported Nov 15 2:00 PM — Nov 30 2:00 PM, Porto Velho, Weather by CustomWeather, © 2015

Note: Actual official high and low records may vary slightly from our data, if they occured in-between our weather recording intervals... More about our weather records


Porto Velho weather history for previous 24 hours

Time TempWeatherWind HumidityBarometerVisibility
2:00 PM
Mon, Nov 30
93 °FScattered clouds.3 mph47%29.77 "HgN/A
1:00 PM91 °FScattered clouds.5 mph52%29.80 "HgN/A
12:00 PM90 °FScattered clouds.8 mph59%29.86 "HgN/A
11:00 AM88 °FScattered clouds.6 mph66%29.86 "HgN/A
10:00 AM86 °FScattered clouds.8 mph66%29.86 "HgN/A
9:00 AM81 °FSunny.9 mph79%29.86 "Hg10 mi
8:00 AM79 °FSunny.8 mph79%29.86 "Hg10 mi
7:00 AM77 °FClear.5 mph94%29.83 "Hg5 mi
6:00 AM75 °FClear.2 mph94%29.80 "Hg5 mi
5:00 AM77 °FClear.3 mph94%29.80 "Hg10 mi
4:00 AM77 °FClear.5 mph89%29.80 "Hg10 mi
3:00 AM77 °FClear.3 mph94%29.80 "Hg10 mi
2:00 AM77 °FPassing clouds.3 mph94%29.80 "HgN/A
1:00 AM77 °FPassing clouds.3 mph94%29.83 "HgN/A
12:00 AM79 °FPassing clouds.5 mph89%29.83 "HgN/A
11:00 PM
Sun, Nov 29
79 °FPassing clouds.3 mph94%29.83 "HgN/A
10:00 PM79 °FPassing clouds.2 mph84%29.83 "HgN/A
9:00 PM79 °FPassing clouds.1 mph84%29.80 "HgN/A
8:00 PM81 °FClear.2 mph79%29.77 "Hg10 mi
7:00 PM82 °FClear.No wind74%29.71 "Hg10 mi
6:00 PM86 °FClear.2 mph66%29.71 "Hg5 mi
5:00 PM90 °FScattered clouds.7 mph55%29.68 "Hg5 mi
4:00 PM91 °FScattered clouds.7 mph56%29.68 "Hg5 mi
3:00 PM91 °FScattered clouds.9 mph56%29.71 "HgN/A
Weather by CustomWeather, © 2015

See weather overviewHow to use our weather pages